Weather History for Edinburgh Airport, United Kingdom

Change the Weather History Date:

Wednesday, April 3, 2013

  Actual Average Record
Temperature  
Mean Temperature 34 °F -  
Max Temperature 44 °F 53 °F 60 °F (2002)
Min Temperature 23 °F 38 °F 23 °F (2013)
Degree Days  
Heating Degree Days 32    
Moisture  
Dew Point 28 °F    
Average Humidity 75    
Maximum Humidity 100    
Minimum Humidity 49    
Precipitation  
Precipitation 0.00 in 0.05 in - ()
Sea Level Pressure  
Sea Level Pressure 30.29 in    
Wind  
Wind Speed 4 mph ()    
Max Wind Speed 13 mph    
Max Gust Speed -    
Visibility 6.0 miles    
Events      
Averages and records for this station are not official NWS values.
T = Trace of Precipitation, MM = Missing Value Source: Averaged Metar Reports

Daily Weather History Graph

Daily Weather History Graph

Search for Another Location

Airport:

Trip Planner

Search our weather history database for the weather conditions in past years. The results will help you decide how hot, cold, wet, or windy it might be!

Date:

Astronomy

Apr. 03, 2013 Rise Set
Actual Time 6:38 AM BST 7:55 PM BST
Civil Twilight 6:00 AM BST 8:34 PM BST
Nautical Twilight 5:13 AM BST 9:21 PM BST
Astronomical Twilight 4:21 AM BST 10:14 PM BST
Moon 3:19 AM BST (4/3) 11:42 AM BST (4/3)
Length of Visible Light 14h 33m
Length of Day
13h 17m
Waning Gibbous, 47% of the Moon is Illuminated
Apr 3
Waning Gibbous
Apr 10
New
Apr 18
First Quarter
Apr 25
Full
May 2
Last Quarter

Hourly Weather History & Observations

Time (BST) Temp. Windchill Dew Point Humidity Pressure Visibility Wind Dir Wind Speed Gust Speed Precip Events Conditions
12:20 AM 32.0 °F - 30.2 °F 93% 30.27 in 6.2 mi Calm Calm - N/A   Overcast
12:50 AM 32.0 °F - 30.2 °F 93% 30.27 in 6.2 mi SW 2.3 mph - N/A   Overcast
1:20 AM 30.2 °F - 28.4 °F 93% 30.27 in 4.3 mi WSW 2.3 mph - N/A   Mostly Cloudy
1:50 AM 28.4 °F - 28.4 °F 100% 30.27 in 1.7 mi West 2.3 mph - N/A   Partly Cloudy
2:20 AM 28.4 °F 24.6 °F 26.6 °F 93% 30.27 in 6.2 mi SSW 3.5 mph - N/A   Unknown
2:50 AM 26.6 °F - 24.8 °F 93% 30.27 in 6.2 mi Calm Calm - N/A   Partly Cloudy
3:20 AM 26.6 °F - 24.8 °F 93% 30.27 in 6.2 mi Calm Calm - N/A   Partly Cloudy
3:50 AM 26.6 °F - 26.6 °F 100% 30.27 in 5.6 mi SW 2.3 mph - N/A   Unknown
4:20 AM 24.8 °F - 24.8 °F 100% 30.27 in 5.6 mi Calm Calm - N/A   Unknown
4:50 AM 24.8 °F - 23.0 °F 93% 30.27 in 5.0 mi Calm Calm - N/A   Unknown
5:20 AM 23.0 °F - 21.2 °F 93% 30.27 in 6.2 mi Calm Calm - N/A   Unknown
5:50 AM 23.0 °F - 23.0 °F 100% 30.27 in 6.2 mi Calm Calm - N/A   Partly Cloudy
6:20 AM 23.0 °F - 21.2 °F 93% 30.27 in 6.2 mi Calm Calm - N/A   Partly Cloudy
6:50 AM 23.0 °F 18.4 °F 21.2 °F 93% 30.30 in 5.6 mi WSW 3.5 mph - N/A   Mostly Cloudy
7:20 AM 23.0 °F - 21.2 °F 93% 30.30 in 6.2 mi Calm Calm - N/A   Partly Cloudy
7:50 AM 26.6 °F - 26.6 °F 100% 30.30 in - Calm Calm - N/A   Clear
8:20 AM 28.4 °F - 26.6 °F 93% 30.30 in 6.2 mi WSW 2.3 mph - N/A   Partly Cloudy
8:50 AM 30.2 °F - 28.4 °F 93% 30.30 in 6.2 mi Calm Calm - N/A   Scattered Clouds
9:20 AM 32.0 °F - 30.2 °F 93% 30.30 in 6.2 mi Calm Calm - N/A   Partly Cloudy
9:50 AM 37.4 °F - 32.0 °F 81% 30.33 in 6.2 mi Variable 2.3 mph - N/A   Partly Cloudy
10:20 AM 39.2 °F 35.0 °F 35.6 °F 87% 30.30 in 6.2 mi East 5.8 mph - N/A   Scattered Clouds
10:50 AM 39.2 °F 33.6 °F 33.8 °F 81% 30.33 in 6.2 mi ENE 8.1 mph - N/A   Scattered Clouds
11:20 AM 41.0 °F 35.2 °F 32.0 °F 70% 30.30 in 6.2 mi NE 9.2 mph - N/A   Scattered Clouds
11:50 AM 41.0 °F 35.2 °F 32.0 °F 70% 30.30 in 6.2 mi NE 9.2 mph - N/A   Scattered Clouds
12:20 PM 42.8 °F 36.6 °F 32.0 °F 66% 30.30 in 6.2 mi ENE 11.5 mph - N/A   Scattered Clouds
12:50 PM 42.8 °F 36.6 °F 30.2 °F 61% 30.30 in 6.2 mi ENE 11.5 mph - N/A   Partly Cloudy
1:20 PM 44.6 °F 38.8 °F 28.4 °F 53% 30.30 in - ENE 11.5 mph - N/A   Clear
1:50 PM 44.6 °F 38.8 °F 26.6 °F 49% 30.30 in 6.2 mi ENE 11.5 mph - N/A   Scattered Clouds
2:20 PM 44.6 °F 38.8 °F 26.6 °F 49% 30.30 in 6.2 mi ENE 11.5 mph - N/A   Scattered Clouds
2:50 PM 44.6 °F 38.4 °F 28.4 °F 53% 30.30 in 6.2 mi ENE 12.7 mph - N/A   Scattered Clouds
3:20 PM 44.6 °F 39.2 °F 26.6 °F 49% 30.30 in 6.2 mi ENE 10.4 mph - N/A   Unknown
3:50 PM 44.6 °F 39.2 °F 26.6 °F 49% 30.27 in - ENE 10.4 mph - N/A   Clear
4:20 PM 44.6 °F 39.2 °F 26.6 °F 49% 30.27 in - ENE 10.4 mph - N/A   Clear
4:50 PM 44.6 °F 38.8 °F 26.6 °F 49% 30.27 in - ENE 11.5 mph - N/A   Clear
5:20 PM 44.6 °F 38.8 °F 26.6 °F 49% 30.27 in - ENE 11.5 mph - N/A   Clear
5:50 PM 42.8 °F 36.6 °F 26.6 °F 53% 30.27 in - ENE 11.5 mph - N/A   Clear
6:20 PM 42.8 °F 37.0 °F 26.6 °F 53% 30.27 in - East 10.4 mph - N/A   Clear
6:50 PM 41.0 °F 35.2 °F 26.6 °F 57% 30.27 in - East 9.2 mph - N/A   Clear
7:20 PM 41.0 °F 34.7 °F 26.6 °F 57% 30.27 in - East 10.4 mph - N/A   Clear
7:50 PM 41.0 °F 35.2 °F 26.6 °F 57% 30.27 in 6.2 mi East 9.2 mph - N/A   Mostly Cloudy
8:20 PM 39.2 °F 34.2 °F 28.4 °F 65% 30.30 in 6.2 mi NE 6.9 mph - N/A   Mostly Cloudy
8:50 PM 39.2 °F 35.9 °F 28.4 °F 65% 30.30 in 6.2 mi NE 4.6 mph - N/A   Mostly Cloudy
9:20 PM 39.2 °F 35.0 °F 28.4 °F 65% 30.30 in 6.2 mi NE 5.8 mph - N/A   Overcast
9:50 PM 39.2 °F 35.9 °F 30.2 °F 70% 30.30 in 6.2 mi NE 4.6 mph - N/A   Overcast
10:20 PM 35.6 °F 31.7 °F 28.4 °F 75% 30.30 in 6.2 mi NE 4.6 mph - N/A   Mostly Cloudy
10:50 PM 37.4 °F - 30.2 °F 75% 30.30 in 6.2 mi NNE 2.3 mph - N/A   Overcast
11:20 PM 37.4 °F - 30.2 °F 75% 30.30 in 6.2 mi North 2.3 mph - N/A   Overcast
11:50 PM 35.6 °F 32.8 °F 28.4 °F 75% 30.30 in 6.2 mi North 3.5 mph - N/A   Mostly Cloudy